Regional Weather Roundup
Issued by NWS

Home | Current Version | Previous Version | Text Only | Print | Product List | Glossary Off
Versions: 1 2 3 4 5 6 7 8 9 10 11 12 13 14 15 16 17 18 19 20 21 22 23 24 25 26 27 28 29 30 31 32 33 34 35 36 37 38 39 40 41 42 43 44 45 46 47 48 49 50

226
ASUS45 KABQ 060110
RWRNM
NEW MEXICO REGIONAL WEATHER ROUNDUP
NATIONAL WEATHER SERVICE ALBUQUERQUE NM
600 PM MST FRI FEB 05 2016

NOTE: "FAIR" MEANS FEW OR NO CLOUDS BELOW 12,000 FEET AGL WITH NO
       SIGNIFICANT WEATHER OR OBSTRUCTIONS TO VISION.

      THIS PRODUCT IS RELEASED AS TWO VERSIONS.  ONE VERSION NEAR
      THE TOP OF THE HOUR CONTAINING PRELIMINARY DATA FROM ALBUQUERQUE
      AND OTHER STATIONS.  A FINAL VERSION WITH ADDITIONAL DATA IS
      ISSUED ABOUT 10 MINUTES AFTER THE HOUR.

NMZ501-503-504-510>518-060200-
NORTHWEST PLATEAU/NORTHCENTRAL MOUNTAINS

CITY           SKY/WX    TMP DP  RH WIND       PRES   REMARKS
FARMINGTON     CLEAR     31  12  45 W15       30.40R WCI  20
LOS ALAMOS     PTCLDY    29   6  37 CALM      30.35R
SANTA FE       CLEAR     30  10  43 NW5       30.35R WCI  25
TAOS           CLEAR     19   1  45 NW8       30.35R WCI   9
ANGEL FIRE     FAIR      15   1  54 W3        30.30R

$$
NMZ402-403-502-505>509-060200-
WESTCENTRAL MOUNTAINS/SOUTHWEST MOUNTAINS

CITY           SKY/WX    TMP DP  RH WIND       PRES   REMARKS
GALLUP         CLEAR     32  10  40 NE8       30.41R WCI  25
GRANTS         FAIR      26   3  38 NW14      30.40S WCI  14
SILVER CITY      N/A     37  -2  18 N8        30.37R WCI  31

$$
NMZ407-409-411-412-060200-
SOUTHERN DESERTS

CITY           SKY/WX    TMP DP  RH WIND       PRES   REMARKS
LORDSBURG      FAIR      45  14  29 SE6       30.33R
DEMING         PTCLDY    45   3  17 E7        30.36R
LAS CRUCES     CLEAR     44  -5  13 N12       30.37R
HOLLOMAN AFB   CLEAR     42   4  20 NW9       30.35R
ALAMOGORDO     CLEAR     43   1  17 NW9       30.36R
T OR C         PTCLDY    43  -3  14 NE7       30.35R

$$
NMZ519>523-060200-
CENTRAL VALLEYS/CENTRAL HIGHLANDS

CITY           SKY/WX    TMP DP  RH WIND       PRES   REMARKS
ALBUQUERQUE    CLEAR     38   7  27 N12       30.38R WCI  30
DOUBLE EAGLE   CLEAR     32   9  37 NW9       30.38R WCI  24
MORIARTY ARPT  FAIR      29   9  42 NW7       30.37R WCI  22
CLINES CORNERS CLEAR     25   9  50 NW13      30.30R WCI  14
BELEN          FAIR      33  -1  23 N7        30.38R WCI  26
SOCORRO        FAIR      37   0  20 NW7       30.37R WCI  32

$$
NMZ524>526-539-540-060200-
SOUTHCENTRAL MOUNTAINS

CITY           SKY/WX    TMP DP  RH WIND       PRES   REMARKS
RUIDOSO          N/A     32   0  25 N9        30.35R WCI  24

$$
NMZ527>531-060200-
NORTHEAST HIGHLANDS/NORTHEAST PLAINS

CITY           SKY/WX    TMP DP  RH WIND       PRES   REMARKS
LAS VEGAS      CLEAR     28   0  29 NW10      30.30R WCI  19
RATON          CLEAR     25  13  60 E9        30.27R WCI  15
CLAYTON        CLEAR     27  15  61 N8        30.30R WCI  19

$$
NMZ532>537-060200-
EASTCENTRAL PLAINS

CITY           SKY/WX    TMP DP  RH WIND       PRES   REMARKS
TUCUMCARI      CLEAR     33  13  43 NE8       30.32R WCI  26
CANNON AFB     NOT AVBL
CLOVIS AIRPORT CLEAR     36  16  44 N14       30.33S WCI  27

$$
NMZ028-029-538-060200-
SOUTHEAST PLAINS

CITY           SKY/WX    TMP DP  RH WIND       PRES   REMARKS
ROSWELL        CLEAR     43   9  24 N8        30.33R
ARTESIA        CLEAR     43  10  26 N12       30.35R
CARLSBAD       CLEAR     46  10  23 N14       30.32R
HOBBS          PTCLDY    41  14  33 NW14      30.33R


$$




USA.gov is the U.S. government's official web portal to all federal, state and local government web resources and services.